Regional Weather Roundup
Issued by NWS

Home | Current Version | Previous Version | Graphics & Text | Print | Product List | Glossary On
Versions: 1 2 3 4 5 6 7 8 9 10 11 12 13 14 15 16 17 18 19 20 21 22 23 24 25 26 27 28 29 30 31 32 33 34 35 36 37 38 39 40 41 42 43 44 45 46 47 48 49 50
000
ASUS43 KLSX 221507
RWRMO

WEATHER SUMMARY FOR MISSOURI
NATIONAL WEATHER SERVICE SPRINGFIELD MO
1000 AM CDT SUN APR 22 2018

NOTE: "FAIR" INDICATES FEW OR NO CLOUDS BELOW 12,000 FEET WITH NO
       SIGNIFICANT WEATHER AND/OR OBSTRUCTIONS TO VISIBILITY.
       CURRENT SKY AND/OR WEATHER CONDITIONS ARE NOT AVAILABLE FOR
       CHILLICOTHE AND FARMINGTON.

MOZ001>031-035>038-043-044-053-054-221600-
...NORTHERN AND WESTERN MISSOURI...

CITY           SKY/WX    TMP DP  RH WIND       PRES   REMARKS
KANSAS CTY INT LGT RAIN  48  39  71 NE13      30.14S
KANSAS C DTWN  LGT RAIN  50  40  68 NE10      30.13S
LEE`S SUMMIT   LGT RAIN  46  43  89 NE15      30.12S FOG
ST JOSEPH      CLOUDY    52  34  50 E12       30.17S
CHILLICOTHE      N/A     53  33  46 E8        30.19R
KIRKSVILLE     CLOUDY    51  33  50 E10       30.20S

$$
MOZ066>068-077>081-088>096-101>105-221600-
...SOUTHWEST MISSOURI...

CITY           SKY/WX    TMP DP  RH WIND       PRES   REMARKS
SPRINGFIELD    LGT RAIN  53  52  96 NE12      29.96S
JOPLIN         CLOUDY    51  51 100 NE6       29.98S
BRANSON        LGT RAIN  52  52 100 N9        29.94F

$$
MOZ032>034-039>042-045>050-055>058-069>072-221600-
...CENTRAL MISSOURI...

CITY           SKY/WX    TMP DP  RH WIND       PRES   REMARKS
COLUMBIA       CLOUDY    53  42  66 E13       30.11F
JEFFERSON CITY CLOUDY    52  48  86 E9        30.11S
ROLLA          LGT RAIN  51  48  89 E14       30.08S
SEDALIA        LGT RAIN  49  47  93 NE13      30.11F
WHITEMAN AFB   LGT RAIN  47  45  92 NE12      30.07
WARRENSBURG    RAIN      45  43  93 NE12G17   30.11S
OSAGE BEACH    RAIN      52  51  97 NE12      30.06F FOG

$$
MOZ051-052-059>065-221600-
...EAST CENTRAL MISSOURI...

CITY           SKY/WX    TMP DP  RH WIND       PRES   REMARKS
ST LOUIS INTL  CLOUDY    59  45  59 E13       30.14F
SPIRIT OF STL  CLOUDY    57  46  66 NE10      30.13F
ST CHARLES     CLOUDY    60  42  51 E10       30.14F

$$
MOZ072>076-082>087-097>100-106>115-221600-
...SOUTH CENTRAL AND SOUTHEAST MISSOURI...

CITY           SKY/WX    TMP DP  RH WIND       PRES   REMARKS
CAPE GIRARDEAU LGT RAIN  53  49  86 E9        30.10R
FARMINGTON     LGT RAIN  52  50  93 E9        30.10F
POPLAR BLUFF   LGT RAIN  52  51  97 NE12      30.05F FOG
WEST PLAINS    LGT RAIN  53  51  93 E10G21    30.00F FOG

$$




USA.gov is the U.S. government's official web portal to all federal, state and local government web resources and services.